Location: The Saddle
(36.8333°N, 80.3417°W)
Time: 16:16:49
(UTC-04:00)

BlueWalker 3 - Visible Passes

Search period start: 22 June 2025 00:00
Search period end: 02 July 2025 00:00
Orbit: 460 x 472 km, 53.2° (Epoch: 22 June)

Date Brightness Start Highest point End Pass type
(mag) Time Alt. Az. Time Alt. Az. Time Alt. Az.
22 Jun 2.8 03:31:37 38° ESE 03:31:37 38° ESE 03:34:29 10° ENE visible
22 Jun 3.6 05:05:53 10° W 05:08:50 23° NNW 05:11:46 10° NNE visible
23 Jun 3.9 03:00:21 21° E 03:00:21 21° E 03:01:59 10° ENE visible
23 Jun 3.4 04:34:15 16° W 04:36:24 27° NW 04:39:32 10° NNE visible
24 Jun 4.6 02:29:00 12° ENE 02:29:00 12° ENE 02:29:25 10° ENE visible
24 Jun 3.1 04:02:55 27° WNW 04:03:57 32° NW 04:07:16 10° NNE visible
25 Jun 2.8 03:31:31 39° NW 03:31:31 39° NW 03:34:58 10° NNE visible
26 Jun 3.2 03:00:03 37° N 03:00:03 37° N 03:02:38 10° NE visible
26 Jun 4.6 04:36:39 10° NW 04:37:31 11° NNW 04:38:23 10° N visible
27 Jun 3.9 02:28:31 26° NNE 02:28:31 26° NNE 02:30:16 10° NE visible
27 Jun 4.6 04:03:29 10° NW 04:04:58 12° NNW 04:06:27 10° N visible
28 Jun 4.5 01:56:56 17° NE 01:56:56 17° NE 01:57:53 10° NE visible
28 Jun 4.5 03:30:50 11° NW 03:32:26 14° NNW 03:34:21 10° N visible
29 Jun 4.9 01:25:17 11° NE 01:25:17 11° NE 01:25:27 10° NE visible
29 Jun 4.3 02:59:10 15° NW 02:59:53 16° NNW 03:02:10 10° NNE visible
30 Jun 4.3 02:27:26 18° NNW 02:27:26 18° NNW 02:29:55 10° NNE visible
01 Jul 4.4 01:55:37 19° NNW 01:55:37 19° NNW 01:57:39 10° NNE visible
